sat.trackr.live / text

‹ back to catalog

STARLINK-30231

NORAD 57514 · 2023-113V

PAYLOAD ACTIVE UNKNOWN

§ Identity

Operator
Country
US
Launch date
2023-08-07
Launch site
AFETR
Launch vehicle
Mass (kg)
RCS (m²)

Purposes: comms

External: N2YO · Heavens-Above · Gunter

§ Orbital elements

Epoch: 2026-05-24T17:14:51.210528Z

Period
94.27 min
Inclination
43.0031°
Eccentricity
0.0001753
Mean motion
15.27563334 rev/d
Perigee alt
481.9 km
Apogee alt
484.3 km
Semi-major
6,861.2 km
B*
5.6552e-5
RAAN
306.6216°
Arg perigee
260.1773°
Mean anomaly
99.8880°
Rev number
15,530

§ Raw data

STARLINK-302311 57514U 23113V   26144.71864827  .00001293  00000+0  56552-4 0  99932 57514  43.0031 306.6216 0001753 260.1773  99.8880 15.27563334155306

JSON: /api/v1/satellites/57514 · /tle

For live sub-satellite position, see the globe view (requires WebGL).

§ Visibility from observer

Set your observer location to see the next 7 days of passes ≥ 10°. The values pass through the URL so the page stays shareable.

No JS? Fill the form by hand. The geolocation button needs JavaScript.